Home   Weather   Winston-Salem   Past weeks

Flag for USA Past Weather in Winston-Salem, North Carolina, USA — Yesterday and Last 2 Weeks

Now
50 °F

Low clouds.


Feels Like: 44 °F
Forecast: 48 / 52 °F
Wind: 17 mph from Northeast

Location: Smith Reynolds Airport

Current Time: Apr 24, 2017 at 11:27:52 am

Latest Report: Apr 24, 2017 at 10:54 am


Visibility: 10 mi

Pressure: 29.89 "Hg

Humidity: 89%

Dew Point: 47 °F

Location of Winston-SalemLocation

Past Weather in Winston-Salem — Graph

°F

Winston-Salem Temperature Yesterday

Maximum temperature yesterday: 53 °F (at 12:01 am)
Minimum temperature yesterday: 48 °F (at 5:54 am)
Average temperature yesterday: 50 °F

High & Low Weather Summary for the Past Weeks

 TemperatureHumidityPressure
High83 °F (Apr 21, 1:54 pm)94% (Apr 22, 5:02 am)30.39 "Hg (Apr 22, 5:02 am)
Low48 °F (Apr 23, 5:54 am)14% (Apr 9, 3:54 pm)29.77 "Hg (Apr 22, 3:54 pm)
Average65 °F64%30.15 "Hg
* Reported Apr 9 9:54 am — Apr 24 9:54 am, Winston-Salem, Weather by CustomWeather, © 2017

Note: Actual official high and low records may vary slightly from our data, if they occured in-between our weather recording intervals... More about our weather records

Advertising

Winston-Salem Weather History for the Previous 24 Hours

Scroll right to see more
 ConditionsComfort  
Time TempWeatherWind HumidityBarometerVisibility
9:54 am
Mon, Apr 24
50 °FLow clouds.16 mph86%29.88 "Hg10 mi
8:54 am49 °FMostly cloudy.18 mph90%29.88 "Hg10 mi
7:54 am49 °FLight rain. Mostly cloudy.15 mph90%29.89 "Hg10 mi
6:54 am49 °FLight rain. Mostly cloudy.10 mph90%29.91 "Hg10 mi
6:34 am48 °FLight rain. Fog.18 mph93%29.89 "Hg5 mi
5:54 am48 °FRain. Fog.15 mph93%29.89 "Hg4 mi
4:54 am49 °FLight rain. Fog.12 mph90%29.89 "Hg6 mi
3:54 am49 °FRain. Fog.9 mph90%29.90 "Hg3 mi
2:54 am49 °FRain. Fog.10 mph90%29.90 "Hg4 mi
1:54 am49 °FLight rain. Mostly cloudy.13 mph90%29.92 "Hg10 mi
12:54 am49 °FRain. Fog.10 mph93%29.96 "Hg3 mi
11:54 pm
Sun, Apr 23
49 °FLight rain. Mostly cloudy.13 mph93%29.95 "Hg7 mi
10:54 pm49 °FLight rain. Mostly cloudy.10 mph93%29.96 "Hg10 mi
9:54 pm49 °FLight rain. Mostly cloudy.13 mph90%29.97 "Hg7 mi
9:41 pm49 °FRain. Fog.15 mph90%29.97 "Hg4 mi
9:33 pm49 °FHeavy rain. Fog.14 mph90%29.97 "Hg3 mi
9:17 pm49 °FHeavy rain. Fog.14 mph90%29.98 "Hg2 mi
9:05 pm49 °FRain. Fog.8 mph90%29.99 "Hg4 mi
7:54 pm50 °FHeavy rain. Fog.13 mph86%29.97 "Hg3 mi
6:54 pm50 °FFog.12 mph89%29.96 "Hg6 mi
5:54 pm50 °FLight rain. Mostly cloudy.12 mph89%29.97 "Hg10 mi
4:54 pm50 °FLight rain. Fog.15 mph89%29.96 "Hg5 mi
4:36 pm50 °FRain. Fog.8 mph93%29.98 "Hg5 mi
4:19 pm50 °FLight rain. Fog.12 mph89%29.97 "Hg2 mi
3:59 pm50 °FRain. Fog.14 mph89%29.98 "Hg2 mi
3:04 pm50 °FRain. Fog.8 mph93%29.99 "Hg2 mi
2:24 pm51 °FHeavy rain. Fog.14 mph89%29.99 "Hg2 mi
1:54 pm51 °FRain. Fog.12 mph89%29.99 "Hg4 mi
12:54 pm51 °FLight rain. Fog.10 mph89%30.01 "Hg5 mi
12:19 pm50 °FRain. Fog.8 mph89%30.06 "Hg3 mi
12:06 pm50 °FHeavy rain. Fog.12 mph89%30.06 "Hg2 mi
11:54 am50 °FRain. Fog.8 mph86%30.05 "Hg4 mi
Weather by CustomWeather, © 2017

See weather overviewHow to use our weather pages